Teterboro, NJ

12:39 PM EDT on April 24, 2018 (GMT -0400)
Teterboro

Weather History for KTEB - February, 2014

Change the Weather History Date:

Wednesday, February 26, 2014

  Actual Average Record
Temperature  
Mean Temperature 26 °F -  
Max Temperature 30 °F 43 °F 62 °F (2002)
Min Temperature 19 °F 28 °F 14 °F (1980)
Degree Days  
Heating Degree Days 40    
Moisture  
Dew Point 12 °F    
Average Humidity 56    
Maximum Humidity 81    
Minimum Humidity 28    
Precipitation  
Precipitation 0.01 in - - ()
Snow  
Snow 0.00 in - - ()
Snow Depth 5.00 in    
Sea Level Pressure  
Sea Level Pressure 29.90 in    
Wind  
Wind Speed 6 mph (West)    
Max Wind Speed 16 mph    
Max Gust Speed 28 mph    
Visibility 7 miles    
Events Snow    
Averages and records for this station are not official NWS values.
T = Trace of Precipitation, MM = Missing Value Source: NWS Daily Summary

Daily Weather History Graph

Daily Weather History Graph

Search for Another Location

Airport or City:

Astronomy

Feb. 26, 2014 Rise Set
Actual Time 6:34 AM EST 5:43 PM EST
Civil Twilight 6:07 AM EST 6:11 PM EST
Nautical Twilight 5:35 AM EST 6:43 PM EST
Astronomical Twilight 5:03 AM EST 7:15 PM EST
Moon 4:19 AM EST (2/26) 2:54 PM EST (2/26)
Length of Visible Light 12h 04m
Length of Day
11h 09m
Waning Crescent, 10% of the Moon is Illuminated
Feb 26
Waning Crescent
Mar 1
New
Mar 8
First Quarter
Mar 16
Full
Mar 23
Last Quarter

Hourly Weather History & Observations

Time (EST) Temp. Windchill Dew Point Humidity Pressure Visibility Wind Dir Wind Speed Gust Speed Precip Events Conditions
12:51 AM 24.1 °F - 10.0 °F 55% 29.98 in 10.0 mi Calm Calm - N/A   Clear
1:51 AM 24.1 °F - 10.0 °F 55% 29.97 in 10.0 mi Calm Calm - N/A   Clear
2:51 AM 24.1 °F - 10.9 °F 57% 29.94 in 10.0 mi Calm Calm - N/A   Clear
3:51 AM 25.0 °F 20.7 °F 12.9 °F 60% 29.94 in 10.0 mi SSW 3.5 mph - N/A   Clear
4:51 AM 27.0 °F 21.6 °F 9.0 °F 47% 29.92 in 10.0 mi SSW 4.6 mph - N/A   Mostly Cloudy
5:51 AM 27.0 °F 20.5 °F 10.0 °F 49% 29.91 in 10.0 mi WSW 5.8 mph - N/A   Overcast
6:51 AM 27.0 °F 18.7 °F 12.0 °F 53% 29.90 in 10.0 mi SW 8.1 mph - N/A   Overcast
7:51 AM 27.0 °F 18.0 °F 15.1 °F 61% 29.91 in 10.0 mi SW 9.2 mph - N/A   Overcast
8:51 AM 27.0 °F 16.1 °F 18.0 °F 69% 29.91 in 3.0 mi SSW 12.7 mph - 0.00 in Snow Light Snow
8:54 AM 26.6 °F 16.8 °F 17.6 °F 69% 29.91 in 2.5 mi SSW 10.4 mph - 0.00 in Snow Light Snow
9:06 AM 26.6 °F 17.5 °F 19.4 °F 74% 29.92 in 1.5 mi SSW 9.2 mph - 0.00 in Snow Light Snow
9:37 AM 26.6 °F 16.8 °F 21.2 °F 80% 29.93 in 1.8 mi SW 10.4 mph - 0.00 in Snow Light Snow
9:44 AM 26.6 °F 16.8 °F 21.2 °F 80% 29.93 in 1.5 mi SW 10.4 mph - 0.00 in Snow Light Snow
9:51 AM 27.0 °F 16.1 °F 21.0 °F 78% 29.93 in 1.5 mi SW 12.7 mph - 0.00 in Snow Light Snow
9:56 AM 26.6 °F 16.8 °F 21.2 °F 80% 29.93 in 0.8 mi SW 10.4 mph - 0.00 in Snow Light Snow
10:14 AM 26.6 °F 18.2 °F 21.2 °F 80% 29.93 in 1.2 mi WSW 8.1 mph - 0.00 in Snow Light Snow
10:31 AM 26.6 °F 18.2 °F 21.2 °F 80% 29.93 in 1.2 mi West 8.1 mph - 0.00 in Snow Light Snow
10:40 AM 26.6 °F 18.2 °F 21.2 °F 80% 29.93 in 0.8 mi WNW 8.1 mph - 0.00 in Snow Light Snow
10:51 AM 27.0 °F 20.5 °F 21.9 °F 81% 29.93 in 0.5 mi Variable 5.8 mph - 0.01 in Snow Snow
10:54 AM 26.6 °F 19.1 °F 21.2 °F 80% 29.92 in 1.5 mi WSW 6.9 mph - 0.00 in Snow Light Snow
11:32 AM 30.2 °F 21.3 °F 15.8 °F 55% 29.89 in 8.0 mi West 10.4 mph - 0.00 in   Overcast
11:51 AM 30.9 °F 21.7 °F 16.0 °F 54% 29.88 in 10.0 mi WSW 11.5 mph - 0.00 in   Mostly Cloudy
12:51 PM 28.9 °F 17.7 °F 14.0 °F 54% 29.86 in 5.0 mi West 15.0 mph 27.6 mph 0.00 in Snow Light Snow
1:51 PM 28.9 °F 19.2 °F 15.1 °F 56% 29.84 in 8.0 mi WNW 11.5 mph - 0.00 in   Overcast
2:51 PM 30.0 °F 18.7 °F 8.1 °F 40% 29.82 in 10.0 mi WNW 16.1 mph - N/A   Scattered Clouds
3:51 PM 30.0 °F 19.1 °F 6.1 °F 36% 29.83 in 10.0 mi NW 15.0 mph 19.6 mph N/A   Clear
4:51 PM 28.9 °F 19.2 °F 3.9 °F 35% 29.83 in 10.0 mi NNW 11.5 mph - N/A   Clear
5:51 PM 27.0 °F 16.1 °F -2.0 °F 29% 29.84 in 10.0 mi NW 12.7 mph - N/A   Clear
6:51 PM 25.0 °F 15.5 °F -2.9 °F 30% 29.86 in 10.0 mi North 9.2 mph - N/A   Clear
7:51 PM 24.1 °F 16.0 °F -5.1 °F 28% 29.87 in 10.0 mi NNW 6.9 mph - N/A   Clear
8:51 PM 23.0 °F 13.9 °F -5.1 °F 29% 29.88 in 10.0 mi North 8.1 mph - N/A   Clear
9:51 PM 21.9 °F 14.5 °F -4.0 °F 32% 29.90 in 10.0 mi North 5.8 mph - N/A   Clear
10:51 PM 21.0 °F - -2.9 °F 35% 29.90 in 10.0 mi Calm Calm - N/A   Clear
11:51 PM 19.0 °F - -2.0 °F 40% 29.90 in 10.0 mi Calm Calm - N/A   Clear